Regional Weather Roundup
Issued by NWS

Home | Current Version | Previous Version | Text Only | Print | Product List | Glossary Off
Versions: 1 2 3 4 5 6 7 8 9 10 11 12 13 14 15 16 17 18 19 20 21 22 23 24 25 26 27 28 29 30 31 32 33 34 35 36 37 38 39 40 41 42 43 44 45 46 47 48 49 50

000
ASUS43 KTOP 190759
RWRKS

WEATHER ROUNDUP FOR KANSAS
NATIONAL WEATHER SERVICE GOODLAND KS
200 AM CST MON FEB 19 2018

NOTE:  "FAIR" INDICATES FEW OR NO CLOUDS BELOW 12,000 FEET WITH NO
SIGNIFICANT WEATHER AND/OR OBSTRUCTIONS TO VISIBILITY.

KSZ001>006-013>018-027>032-041>047-190900-
NORTHWEST KANSAS

CITY           SKY/WX    TMP DP  RH WIND       PRES   REMARKS
GOODLAND       CLOUDY    20  19  96 N26G36    29.68R FOG     WCI   2
HILL CITY      CLOUDY    28  25  88 N28G38    29.65R WCI  13
RUSSELL        PTCLDY    37  32  82 NW21G29   29.53R WCI  26
$$

KSZ061>065-074>080-084>089-190900-
SOUTHWEST KANSAS

CITY           SKY/WX    TMP DP  RH WIND       PRES   REMARKS
DODGE CITY     CLEAR     59  38  45 W7        29.54R
GARDEN CITY    CLEAR     34  25  69 N23G32    29.57R WCI  22
$$

KSZ066>073-081>083-090>101-190900-
SOUTHEAST KANSAS

CITY           SKY/WX    TMP DP  RH WIND       PRES   REMARKS
CHANUTE        CLOUDY    57  56  96 S17G23    29.71S
COFFEYVILLE    CLOUDY    58  57  97 S13       29.72S FOG
HUTCHINSON     CLOUDY    62  58  86 S23G32    29.53F
PARSONS        CLOUDY    57  57 100 S14G24    29.72F FOG
WICHITA INTL   CLOUDY    63  59  87 S23G37    29.59S
WICHITA JABRA  CLOUDY    62  59  90 S22G32    29.61R
$$

KSZ007>012-019>026-033>040-048>060-102>105-190900-
NORTHEAST KANSAS

CITY           SKY/WX    TMP DP  RH WIND       PRES   REMARKS
CONCORDIA      CLOUDY    52  48  87 NE5       29.53S
EMPORIA        CLOUDY    55  54  96 S28G36    29.59F FOG
LAWRENCE       CLOUDY    56  54  93 S18G29    29.63F
MANHATTAN      CLOUDY    59  55  87 S22G32    29.52F
OLATHE IND     CLOUDY    55  54  96 S14       29.67F
OLATHE EXE     CLOUDY    54  54 100 S22G29    29.66F
TOPEKA BILLARD CLOUDY    55  54  96 S18G28    29.59F
TOPEKA FORBES  CLOUDY    55  53  93 S18G26    29.60F
$$




USA.gov is the U.S. government's official web portal to all federal, state and local government web resources and services.